Wind_Speed
20 21 21 22 23 23 23 23 23 23 23 24 24 24 24 24 24 24 25 25 24 24 24 25 25 25 25 24 25 25 25 26 26 26 27 28 28 28 29 29 30 30 30
20 21 21 21 21 21 22 22 22 23 23 23 23 22 22 23 24 24 24 24 24 24 24 24 24 25 25 25 25 26 26 26 27 27 26 26 27 28 28 29 29 30 30
19 20 20 20 20 20 21 22 22 21 21 21 21 21 22 23 23 23 23 23 23 23 24 24 24 24 24 25 26 26 26 26 26 26 26 26 26 26 26 27 27 28 28
19 19 19 19 19 20 20 20 20 20 21 21 21 21 21 21 21 22 22 22 23 23 24 24 24 24 24 26 26 26 26 26 26 26 26 26 26 26 26 26 26 27 28
19 19 19 19 19 19 19 19 19 19 20 20 20 20 20 21 21 22 22 22 21 22 23 24 24 24 24 25 25 25 25 26 26 26 25 26 26 27 27 27 26 26 27
18 18 18 18 18 19 19 18 18 18 19 20 19 20 20 21 21 21 21 21 21 22 23 23 23 24 25 25 25 25 25 25 25 25 25 26 26 26 26 26 26 26 27
17 17 18 18 18 18 17 17 17 18 18 18 19 20 20 21 21 20 20 21 21 22 23 24 25 26 26 25 25 25 25 25 25 25 26 25 25 25 26 26 26 26 26
16 17 17 17 16 16 16 16 16 17 17 18 18 19 20 20 19 20 21 22 23 23 24 25 26 27 26 27 26 26 26 26 27 27 27 26 26 26 26 25 25 25 26
16 16 16 16 16 15 15 15 15 15 17 18 18 19 20 20 20 21 22 23 24 24 25 26 26 26 26 27 26 26 26 27 28 28 28 27 27 26 26 26 25 24 24
14 15 15 16 15 15 15 15 16 17 17 18 18 19 20 20 21 22 23 24 25 26 27 27 27 27 27 27 26 26 27 27 28 27 27 26 26 25 25 25 25 25 25
14 14 15 15 15 15 15 15 16 17 17 18 19 20 21 21 22 24 24 25 26 27 28 28 28 28 27 27 26 26 26 26 25 24 24 24 24 24 24 24 24 23 24
13 14 15 14 14 15 15 15 16 17 18 19 20 21 22 22 23 25 26 27 28 28 29 28 28 27 27 27 25 24 24 24 24 23 23 22 22 23 23 22 22 22 22
13 15 15 14 14 15 16 16 17 18 19 20 21 21 22 23 25 26 27 28 29 29 28 28 27 26 26 26 25 23 23 22 22 21 21 21 21 20 20 21 21 21 22
13 14 14 14 15 16 16 17 17 18 20 21 21 22 23 24 26 27 28 28 29 29 28 28 26 25 25 24 23 23 22 22 21 20 21 20 19 18 19 19 19 20 20
14 14 14 15 16 17 17 17 18 19 20 21 22 23 24 26 27 28 29 28 28 28 28 27 26 25 24 23 22 22 21 21 21 20 19 19 19 20 20 19 19 20 20
13 14 14 15 16 17 18 18 19 20 21 22 23 24 26 27 29 29 29 29 29 28 28 27 26 25 24 22 21 21 21 21 21 20 20 19 19 19 19 19 18 19 19
12 13 14 15 16 17 18 19 20 21 22 23 25 26 28 29 29 29 30 30 30 29 28 27 26 25 24 23 22 21 21 21 21 21 20 19 18 18 17 17 18 18 19
12 13 14 15 16 17 18 19 20 21 23 24 26 27 28 29 30 30 30 30 29 28 27 26 25 25 26 25 23 23 22 22 21 20 19 19 18 18 18 18 18 18 19
11 13 14 15 16 17 18 20 21 23 24 26 26 27 29 30 31 31 30 29 29 28 28 27 27 26 27 26 24 24 23 23 22 21 20 19 18 18 18 18 18 18 19
11 13 14 15 16 17 19 21 22 23 25 26 27 29 29 30 31 31 30 30 30 29 29 28 28 27 27 27 25 24 24 23 23 22 21 20 19 18 18 17 18 18 19
11 13 14 15 16 18 19 21 23 24 25 27 28 29 30 30 30 30 31 31 31 30 30 29 29 28 28 27 26 26 26 25 24 23 22 20 20 19 18 17 17 17 17
11 12 13 15 16 18 20 21 23 25 26 28 29 29 30 30 30 31 31 32 32 32 31 30 29 29 28 28 28 27 27 27 25 24 22 21 19 18 17 16 15 15 15
11 12 14 15 17 19 20 22 24 26 27 28 29 29 29 30 30 31 31 32 32 32 31 30 29 29 29 29 29 29 28 28 27 25 23 21 19 18 17 16 15 15 14
11 13 14 16 17 19 20 23 25 26 27 29 29 30 30 30 31 31 31 32 32 32 32 31 30 30 30 30 31 30 29 29 27 26 24 21 19 18 16 15 14 14 13
11 13 15 17 18 19 21 22 24 26 27 29 29 30 30 31 31 32 32 32 33 33 32 32 31 31 31 31 31 31 30 29 28 26 24 22 20 19 17 15 14 14 13
11 13 15 17 18 19 21 22 24 26 28 29 29 30 30 31 32 32 32 33 33 33 32 32 32 31 32 32 32 32 31 30 28 26 25 24 22 20 18 16 14 14 13
Wind_Direction
304 302 302 301 301 302 303 302 301 300 301 300 298 298 296 296 297 297 299 299 299 299 297 296 295 292 292 291 290 289 286 284 284 281 281 280 277 275 274 272 268 266 264
307 306 307 306 304 304 304 305 304 302 303 304 301 299 298 298 298 299 299 299 299 300 299 298 295 293 291 289 290 289 287 287 286 284 284 282 279 277 275 272 268 265 263
311 312 312 309 308 308 308 307 306 305 305 305 302 300 301 301 301 301 301 301 301 301 300 299 296 295 294 294 292 290 289 288 288 287 286 285 283 280 278 273 269 266 262
317 316 315 315 314 312 312 310 309 308 307 306 305 304 305 306 305 305 303 302 302 302 300 299 298 297 297 296 293 291 289 288 288 288 286 285 284 282 280 275 272 267 264
322 322 320 318 318 316 316 314 313 311 311 310 310 308 309 310 310 309 307 304 302 303 304 302 300 298 300 298 295 293 291 289 287 287 286 285 284 281 280 276 272 268 264
328 327 327 324 321 320 318 317 316 315 314 314 313 314 314 314 314 313 310 307 304 304 306 305 303 301 302 299 296 295 293 290 287 286 286 286 285 281 278 275 272 268 262
331 330 328 327 325 324 323 322 321 320 318 317 316 316 317 317 317 316 315 313 311 311 309 306 305 304 303 302 300 297 294 291 288 287 288 288 285 282 278 274 272 268 263
338 339 338 336 333 331 331 329 326 325 324 324 320 320 321 322 322 321 321 317 315 315 311 309 308 305 304 302 300 296 293 290 288 287 288 287 286 282 279 276 272 267 262
340 342 344 344 342 342 341 336 332 331 329 329 325 327 327 326 325 324 323 320 319 318 315 311 308 306 305 303 299 296 292 290 290 289 288 286 284 281 278 276 272 267 260
343 345 347 347 347 346 344 341 339 338 337 336 333 332 331 329 327 326 325 323 322 320 318 314 312 309 306 304 301 298 296 294 293 292 290 287 284 281 278 275 271 266 260
347 347 347 348 348 348 347 345 343 342 340 339 338 335 334 332 330 329 327 325 323 321 319 317 315 313 310 309 307 304 302 300 298 294 291 288 284 281 279 276 272 268 263
347 346 345 346 348 351 351 349 347 345 343 341 339 337 335 334 333 331 328 326 325 324 323 321 319 318 315 313 310 308 305 303 301 298 294 291 287 282 279 276 273 269 265
347 347 348 346 349 351 351 350 348 347 345 343 340 339 337 337 335 333 331 330 328 327 325 324 323 321 319 317 315 312 309 305 302 299 297 295 291 284 279 276 273 269 267
348 348 349 349 350 350 351 351 349 347 345 344 343 342 340 339 337 336 335 334 333 331 330 328 327 326 325 323 320 315 312 310 307 302 298 294 290 286 281 276 273 269 266
348 350 350 351 351 351 351 350 348 347 346 347 346 344 343 342 341 339 339 338 336 335 334 334 332 332 331 327 324 321 317 314 310 307 301 295 289 287 284 279 275 270 265
348 350 351 352 353 352 352 350 350 349 350 350 349 348 346 344 343 343 343 343 341 340 340 340 340 338 336 332 327 324 321 321 318 312 306 300 293 288 285 281 278 272 266
350 351 353 353 352 353 354 354 354 355 355 353 351 349 348 347 347 347 346 345 344 344 343 342 341 341 340 337 334 330 327 324 323 319 314 308 299 292 288 284 280 274 270
350 352 353 352 353 354 356 355 354 355 355 354 352 351 349 349 349 349 349 348 347 346 345 345 344 344 343 340 336 333 331 327 323 320 318 314 308 298 291 287 282 277 274
351 354 356 355 356 358 357 356 355 355 355 354 353 352 351 351 352 352 352 352 351 351 349 348 346 345 344 343 341 337 335 331 327 323 319 314 309 304 297 290 284 281 277
354 357 359 359 359 359 358 358 358 357 356 355 353 352 352 354 355 355 356 356 355 353 351 350 349 347 346 345 344 343 340 337 332 328 323 319 313 307 302 293 284 281 279
358 359 360 1 360 359 358 359 0 360 357 356 355 355 355 355 356 356 356 356 356 354 353 352 352 351 350 348 346 343 342 341 337 332 328 324 319 314 308 301 292 285 281
0 360 1 1 360 359 359 0 1 0 359 358 357 356 357 357 356 356 356 355 355 355 354 354 354 353 352 352 350 348 345 342 341 337 333 329 325 321 317 311 303 295 287
358 359 0 359 358 358 359 1 1 0 359 358 357 357 358 358 357 356 356 355 355 356 356 355 355 355 354 353 352 350 347 345 342 340 337 334 330 326 321 316 309 302 297
0 1 360 358 359 359 359 0 0 360 359 359 359 359 359 359 358 357 357 356 356 356 356 356 355 355 355 354 353 351 349 348 347 345 343 340 337 333 328 322 315 309 304
2 1 360 359 359 359 359 360 1 0 360 359 359 0 0 0 360 360 359 358 357 357 356 357 356 356 355 354 354 354 353 352 351 349 347 344 340 335 331 327 320 314 310
2 2 -0 359 359 359 360 0 1 1 0 360 0 1 1 1 1 1 1 360 359 358 357 357 357 357 356 356 355 355 355 355 354 353 352 350 347 343 337 333 327 322 317
Height
5767 5764 5762 5759 5756 5754 5751 5748 5746 5743 5741 5738 5735 5733 5731 5729 5726 5723 5720 5718 5715 5712 5709 5706 5703 5700 5697 5695 5692 5690 5688 5686 5685 5683 5681 5679 5677 5676 5675 5673 5673 5672 5672
5761 5759 5756 5753 5751 5748 5746 5743 5740 5737 5735 5732 5729 5727 5725 5722 5720 5717 5714 5711 5708 5705 5702 5698 5695 5693 5690 5688 5685 5682 5680 5678 5677 5675 5673 5670 5669 5667 5666 5665 5664 5663 5663
5757 5754 5751 5748 5746 5743 5740 5737 5734 5731 5729 5726 5724 5721 5719 5716 5713 5710 5707 5704 5701 5698 5695 5691 5688 5686 5683 5681 5678 5675 5672 5670 5668 5666 5665 5662 5660 5659 5657 5656 5655 5654 5654
5753 5749 5747 5744 5741 5738 5735 5732 5729 5727 5724 5721 5719 5716 5713 5710 5707 5704 5701 5697 5694 5691 5688 5684 5681 5679 5676 5673 5670 5667 5665 5662 5660 5659 5657 5654 5652 5650 5649 5648 5647 5646 5646
5749 5746 5742 5739 5736 5733 5730 5728 5725 5722 5720 5717 5714 5711 5708 5705 5702 5698 5694 5691 5688 5684 5681 5678 5675 5672 5669 5666 5662 5660 5657 5655 5653 5651 5649 5646 5644 5642 5641 5639 5638 5637 5637
5746 5742 5739 5735 5732 5729 5727 5724 5721 5719 5716 5713 5710 5707 5703 5700 5696 5693 5689 5685 5682 5679 5675 5672 5668 5665 5662 5658 5655 5652 5649 5647 5645 5643 5641 5639 5636 5634 5632 5631 5630 5629 5629
5743 5739 5736 5732 5729 5726 5723 5721 5718 5715 5712 5709 5706 5703 5699 5696 5692 5688 5683 5680 5676 5673 5669 5666 5662 5658 5654 5651 5648 5645 5642 5639 5637 5635 5633 5630 5628 5625 5623 5622 5621 5620 5620
5741 5737 5733 5729 5726 5723 5720 5718 5715 5712 5709 5706 5702 5698 5695 5691 5688 5683 5679 5675 5671 5667 5664 5660 5656 5652 5648 5644 5641 5638 5634 5631 5629 5626 5624 5621 5619 5616 5615 5613 5612 5611 5611
5739 5735 5731 5728 5725 5721 5718 5715 5712 5709 5706 5702 5699 5695 5691 5687 5684 5679 5675 5671 5667 5662 5658 5654 5649 5645 5641 5637 5633 5630 5626 5623 5620 5617 5614 5612 5610 5608 5606 5605 5604 5603 5603
5738 5734 5731 5727 5724 5720 5717 5713 5710 5707 5704 5700 5696 5692 5688 5684 5680 5676 5671 5667 5662 5658 5653 5647 5643 5638 5634 5629 5625 5622 5618 5614 5611 5608 5605 5602 5601 5599 5597 5596 5595 5595 5595
5737 5734 5730 5727 5723 5719 5716 5712 5709 5705 5702 5698 5694 5690 5686 5681 5677 5672 5667 5662 5657 5652 5646 5641 5636 5631 5626 5622 5617 5613 5610 5606 5603 5600 5597 5594 5592 5591 5589 5588 5587 5587 5587
5736 5733 5730 5726 5722 5719 5715 5711 5708 5704 5700 5696 5692 5688 5683 5678 5673 5668 5663 5657 5651 5646 5640 5635 5629 5624 5619 5614 5610 5606 5602 5599 5596 5592 5590 5587 5585 5583 5581 5580 5579 5579 5579
5735 5732 5729 5725 5722 5718 5714 5710 5707 5703 5699 5694 5690 5685 5680 5675 5670 5664 5658 5652 5646 5640 5634 5628 5623 5617 5612 5608 5603 5599 5596 5592 5589 5586 5583 5580 5578 5576 5574 5573 5572 5571 5571
5734 5731 5728 5725 5721 5717 5713 5710 5706 5701 5697 5692 5688 5683 5677 5672 5666 5661 5654 5648 5641 5635 5629 5623 5617 5611 5606 5601 5597 5593 5589 5585 5582 5579 5576 5574 5571 5569 5568 5566 5565 5564 5564
5733 5730 5727 5724 5720 5716 5712 5708 5704 5700 5695 5691 5685 5680 5675 5669 5663 5657 5650 5644 5637 5631 5624 5618 5613 5607 5601 5596 5592 5588 5584 5580 5576 5572 5569 5567 5565 5563 5561 5559 5558 5558 5557
5732 5730 5726 5723 5719 5716 5712 5707 5703 5699 5694 5689 5684 5678 5672 5666 5659 5653 5646 5639 5633 5626 5620 5614 5608 5602 5597 5592 5587 5583 5579 5574 5570 5566 5563 5560 5558 5556 5554 5552 5551 5550 5550
5732 5729 5726 5722 5719 5715 5711 5707 5702 5698 5692 5687 5682 5676 5670 5663 5656 5650 5643 5636 5629 5623 5617 5610 5604 5599 5593 5588 5583 5578 5573 5569 5565 5561 5557 5554 5552 5549 5547 5546 5544 5543 5543
5731 5728 5725 5722 5718 5714 5710 5706 5701 5696 5691 5686 5680 5674 5668 5661 5654 5647 5640 5633 5627 5620 5614 5608 5602 5596 5590 5584 5579 5574 5569 5564 5560 5556 5552 5549 5546 5543 5541 5539 5538 5537 5537
5730 5727 5724 5721 5717 5714 5709 5705 5700 5695 5690 5684 5678 5672 5666 5659 5652 5645 5638 5631 5624 5618 5611 5605 5599 5593 5587 5581 5575 5570 5565 5560 5555 5551 5547 5543 5540 5537 5535 5533 5531 5530 5529
5729 5726 5723 5720 5717 5713 5709 5704 5699 5694 5688 5682 5676 5670 5664 5657 5650 5643 5636 5629 5622 5616 5609 5603 5597 5590 5584 5578 5572 5566 5561 5556 5551 5546 5542 5538 5535 5531 5529 5527 5525 5524 5523
5728 5726 5723 5720 5716 5712 5708 5703 5698 5693 5687 5681 5675 5669 5662 5655 5648 5642 5635 5628 5621 5614 5608 5601 5594 5588 5582 5575 5569 5564 5558 5552 5547 5542 5537 5533 5529 5526 5523 5520 5519 5517 5516
5727 5725 5722 5719 5716 5712 5707 5703 5698 5692 5686 5680 5674 5667 5661 5654 5647 5640 5634 5627 5620 5613 5606 5599 5593 5586 5580 5573 5567 5561 5555 5549 5543 5538 5533 5528 5524 5521 5518 5515 5513 5511 5510
5727 5724 5721 5718 5715 5711 5706 5702 5696 5691 5685 5679 5672 5666 5659 5653 5646 5639 5632 5625 5618 5611 5604 5597 5591 5584 5578 5571 5565 5558 5552 5546 5540 5534 5529 5524 5520 5517 5514 5511 5509 5507 5506
5726 5723 5720 5717 5713 5709 5705 5701 5695 5690 5684 5678 5671 5665 5658 5652 5645 5638 5631 5624 5617 5610 5603 5596 5589 5583 5576 5570 5563 5556 5549 5543 5537 5531 5525 5521 5517 5513 5510 5507 5505 5503 5502
5725 5722 5719 5716 5712 5708 5704 5700 5695 5689 5683 5677 5671 5664 5657 5651 5644 5637 5630 5623 5616 5609 5602 5595 5588 5581 5575 5568 5561 5554 5547 5540 5534 5528 5523 5518 5514 5510 5507 5504 5502 5500 5498
5723 5721 5718 5715 5711 5707 5703 5699 5694 5688 5682 5676 5670 5663 5656 5650 5643 5636 5629 5622 5615 5608 5601 5594 5587 5580 5573 5566 5559 5552 5545 5539 5532 5527 5521 5516 5512 5508 5504 5501 5499 5496 5494